Tracking 32579 objects as of 15-Dec-2025
HD Live streaming from Space Station
objects crossing your sky now

STARLINK-35626

Track STARLINK-35626 now!
10-day predictions
STARLINK-35626 is classified as:


NORAD ID: 66233
Int'l Code: 2025-244AD
Perigee: 453.5 km
Apogee: 455.5 km
Inclination: 53.2 °
Period: 93.5 minutes
Semi major axis: 6825 km
RCS: Unknown
Launch date: October 28, 2025
Source: United States (US)
Launch site: AIR FORCE WESTERN TEST RANGE (AFWTR)
Your satellite tracking list
Your tracking list is empty




NASA's NSSDC Master Catalog

Two Line Element Set (TLE):
1 66233U 25244AD  25348.17364010  .00058811  00000-0  14709-2 0  9997
2 66233  53.1604 268.7493 0001406  53.5303 306.5832 15.39579216  8542
Source of the keplerian elements: AFSPC